Lapse_Rate
-0.1 -0.3 -1.4 -1.7 -1.8 -2.2 -1.8 -2.0 -2.5 -2.3 -2.0 -2.0 -2.0 -2.2 -2.3 -2.5 -2.3 -2.8 -3.0 -3.0 -2.7 -3.4 -3.6 -3.2 -3.6 -3.6 -3.5 -3.3 -3.0 -2.6 -2.0 -1.2 0.7 0.4 0.8 1.3 1.9 2.2 2.6 3.2 3.6 4.2 4.5
0.4 0.2 -0.7 -1.3 -1.5 -1.7 -1.6 -1.8 -2.3 -2.4 -1.4 -1.3 -1.5 -1.8 -1.9 -2.0 -2.0 -2.1 -1.7 -2.3 -2.3 -2.9 -3.3 -3.0 -3.0 -2.4 -3.5 -3.3 -3.0 -2.6 -2.1 -1.8 -0.4 0.2 0.1 0.9 1.8 2.4 2.6 3.0 3.2 4.7 4.9
0.4 -0.1 -1.0 -0.9 -1.0 -1.3 -1.3 -1.5 -2.2 -2.0 -1.5 -1.0 -1.4 -1.6 -1.7 -1.9 -2.0 -1.5 -1.5 -2.0 -2.4 -2.7 -2.6 -2.5 -3.0 -3.0 -3.1 -3.0 -2.8 -2.4 -2.1 -1.3 -1.6 -0.5 0.1 0.3 1.3 2.2 3.3 3.4 3.9 4.6 6.1
0.2 -0.2 -0.8 -0.6 -0.7 -0.8 -1.0 -1.3 -1.6 -1.3 -1.5 -1.4 -1.3 -1.4 -1.2 -1.2 -1.2 -1.2 -1.6 -2.2 -2.4 -2.3 -2.0 -2.2 -2.5 -2.4 -2.5 -2.6 -1.9 -2.1 -2.0 -1.9 -1.5 -0.8 0.0 0.8 1.5 2.4 3.5 3.3 4.6 5.4 5.7
0.3 0.0 -0.5 -0.5 -0.4 -0.6 -0.8 -0.9 -1.1 -0.9 -0.9 -0.9 -1.2 -1.3 -1.0 -0.9 -0.6 -1.6 -1.7 -2.0 -2.0 -2.1 -2.0 -1.8 -1.9 -1.3 -1.3 -1.8 -1.9 -2.3 -2.2 -1.7 -1.4 -0.6 0.1 0.7 1.4 2.2 3.1 4.0 4.7 4.5 4.6
0.3 0.1 -0.2 -0.0 0.1 -0.3 -0.3 -0.6 -0.7 -0.7 -0.7 -0.9 -1.0 -1.2 -1.7 -0.0 0.3 -0.4 -1.0 -1.7 -1.4 -1.5 -1.6 -1.8 -1.1 -1.1 -1.2 -1.2 -1.2 -2.2 -2.0 -1.5 -1.4 -0.9 -0.3 0.9 2.0 2.8 3.7 3.8 4.1 3.8 4.1
0.0 0.1 -0.1 0.5 0.4 0.0 0.1 -0.1 -0.3 -0.4 -0.9 -0.8 -1.0 -1.0 -1.3 -0.9 -0.3 -0.2 -0.2 -0.9 -1.1 -1.5 -1.6 -1.7 -0.9 -1.2 -1.6 -1.6 -1.4 -1.3 -1.2 -1.2 -1.3 -0.8 -0.0 0.8 2.0 2.9 4.0 4.8 4.8 4.4 4.3
0.1 -0.0 0.3 0.6 0.6 0.3 0.3 0.3 -0.1 -0.0 0.0 -0.4 -0.8 -1.0 -0.9 -0.7 -0.5 -0.4 -0.4 -0.9 -1.4 -1.2 -1.4 -1.4 -1.6 -2.3 -1.8 -2.0 -2.3 -1.8 -1.6 -1.2 -0.7 0.0 0.2 0.8 1.3 2.2 3.0 4.0 4.8 5.1 4.4
0.1 -0.2 0.4 0.7 0.5 0.3 0.2 -0.1 0.2 0.1 -0.5 0.0 0.1 -0.9 -1.0 -1.2 -0.9 -0.7 -0.9 -1.7 -1.3 -1.2 -1.1 -1.1 -1.5 -2.0 -1.4 -1.5 -1.9 -1.5 -1.4 -1.1 -0.0 0.9 1.7 2.2 2.0 2.4 3.2 4.4 4.7 4.2 4.5
0.4 0.1 0.1 0.6 0.6 0.4 0.1 -0.1 0.3 0.6 0.6 0.3 -0.2 -0.3 -0.7 -0.9 -1.3 -1.0 -0.7 -1.4 -1.3 -1.7 -1.7 -1.4 -1.4 -1.5 -0.8 -1.3 -1.7 -1.5 -1.3 -1.1 -0.5 0.2 1.1 2.1 2.4 2.4 2.9 3.2 4.7 4.9 4.1
1.1 0.4 0.0 0.4 0.4 0.5 -0.2 0.1 -0.0 0.6 0.9 0.6 0.3 -0.9 -0.4 -0.6 -1.7 -0.8 -0.2 -1.4 -0.9 -1.5 -1.5 -1.9 -2.2 -1.4 -0.9 -1.1 -1.5 -1.6 -1.3 -1.4 -2.0 -0.8 -0.0 1.7 2.2 2.1 2.2 3.3 3.6 5.1 4.9
0.9 0.1 -0.2 -0.0 0.8 0.5 0.2 -0.3 0.6 1.0 0.9 -0.0 0.1 -0.7 -0.9 -1.0 -0.5 -0.6 -0.3 0.3 -0.4 -0.8 -1.3 -1.8 -1.7 -0.8 -0.7 -0.8 -1.6 -0.8 -0.5 -1.0 -2.0 -0.9 0.2 1.5 2.0 2.3 2.9 3.3 4.3 4.7 4.8
0.5 -0.4 -0.2 -0.2 0.2 -0.5 0.0 -0.2 0.6 1.1 1.4 0.6 0.9 0.7 -1.1 -1.7 -1.7 -0.4 -0.1 0.1 -0.1 -1.1 -1.4 -1.4 -1.3 -0.7 -0.9 -0.9 -1.2 -0.6 -0.7 -1.9 -1.2 -0.2 0.4 1.2 1.9 2.0 2.8 3.3 5.1 6.2 7.2
0.2 -0.4 -0.7 -0.8 -0.8 -0.6 0.4 0.4 0.8 0.6 0.9 1.2 0.8 -0.1 -1.1 -1.3 -1.7 -2.3 -1.5 -0.7 -1.3 -1.3 -1.5 -1.7 -1.6 -1.3 -1.5 -2.0 -2.0 -1.3 -1.5 -1.7 -0.8 0.1 0.3 0.9 1.9 1.6 2.8 3.1 4.8 6.0 7.1
0.6 -0.5 -0.8 -0.4 -0.9 -0.7 -0.1 -0.0 0.8 0.9 0.7 -0.0 0.3 -0.2 -1.2 -0.6 -1.6 -1.4 -1.7 -1.7 -2.2 -1.5 -2.1 -2.6 -2.9 -2.7 -2.5 -2.5 -2.3 -1.9 -1.9 -1.7 -0.9 -0.4 -0.1 1.0 2.3 1.8 2.8 3.1 4.8 6.4 7.3
-0.0 -0.4 -0.9 -1.2 -0.9 -0.5 -0.7 -1.8 -2.7 -0.2 -1.3 -0.9 -0.4 0.2 -1.0 0.1 -1.7 -1.3 -1.0 -0.5 -0.7 -2.1 -1.5 -1.9 -2.1 -2.1 -1.9 -1.8 -1.7 -1.7 -2.1 -2.1 -0.8 -0.5 0.0 0.8 2.0 2.1 2.5 3.2 4.6 5.3 6.6
0.1 -1.0 -1.4 -1.6 -1.6 -1.5 -1.2 -0.5 -0.7 -3.4 -1.9 -0.8 -0.4 -0.5 -0.5 -0.7 -1.3 -0.7 -0.4 -0.4 -0.7 -1.3 -0.4 -0.7 -0.9 -1.6 -1.9 -1.7 -1.4 -1.6 -1.8 -1.1 -0.6 -0.7 0.1 0.5 1.5 2.3 1.8 2.6 4.1 5.2 5.6
0.9 -2.8 -1.5 -1.8 -1.5 -1.7 -1.1 -0.5 -0.1 -0.3 -0.3 -1.9 -2.0 -0.3 -0.7 -0.3 -0.7 -0.3 -0.2 -0.3 -1.1 -0.3 0.1 -0.2 -0.8 -1.6 -1.8 -1.6 -1.6 -1.6 -1.5 -1.5 -1.3 -0.8 -0.7 -0.1 0.6 2.0 1.7 2.1 4.1 4.7 5.0
2.0 -0.0 -0.5 -1.5 -1.4 -1.5 -1.2 -1.2 -0.9 -0.7 -0.0 -1.6 -2.6 -2.7 -2.3 -0.9 -0.3 -0.4 -0.5 0.3 -0.2 -0.7 -0.4 -0.8 -1.0 -1.6 -1.7 -1.7 -1.6 -1.7 -1.4 -1.5 -1.2 -1.1 -0.9 -0.7 -0.3 1.3 1.3 1.8 3.1 4.5 4.6
1.5 -1.2 -1.6 -1.5 -1.7 -1.8 -1.8 -1.4 -1.5 -1.1 -1.4 -1.4 -0.5 -0.1 -3.1 -1.8 -2.1 -2.2 -1.1 -0.7 0.3 0.2 -0.1 -0.3 -0.9 -1.3 -1.5 -1.6 -1.8 -1.9 -1.8 -2.0 -1.7 -1.7 -1.3 -1.0 -0.7 0.4 1.1 1.5 2.4 4.0 4.5
1.5 -1.4 -1.9 -1.2 -1.3 -1.5 -1.9 -1.7 -1.6 -1.2 -0.8 -1.1 -0.5 -1.9 -2.0 -0.1 -0.6 -1.3 -1.8 -1.6 -0.8 -0.6 -1.1 -0.9 -1.1 -1.3 -1.5 -1.4 -1.5 -1.8 -1.7 -1.6 -1.7 -1.5 -1.2 -1.1 -1.5 -0.2 1.0 1.4 2.4 3.2 5.2
1.4 0.5 -1.3 -1.2 -1.4 -1.7 -1.6 -1.7 -2.0 -1.7 -1.4 -1.2 -1.9 -3.1 -2.7 -0.1 -0.4 -0.6 -1.0 -1.1 -1.1 -0.6 -0.7 -0.6 -0.9 -1.0 -1.1 -1.2 -1.2 -1.6 -1.6 -1.7 -1.9 -1.7 -1.6 -1.5 -1.1 -0.6 0.3 1.1 2.1 2.9 5.4
0.5 0.8 -0.7 -1.4 -1.1 -2.2 -2.6 -2.6 -2.6 -2.3 -2.1 -1.8 -2.5 -3.0 -2.9 -1.6 -1.2 -1.1 -1.1 -1.4 -1.5 -1.3 -1.1 -0.7 -0.8 -1.1 -1.2 -1.0 -0.8 -0.8 -1.2 -1.7 -1.7 -1.4 -1.4 -1.4 -1.2 -0.6 0.1 0.7 1.4 2.1 3.7
-0.2 0.3 1.0 -0.0 -0.4 -0.5 -1.0 -1.4 -1.4 -1.8 -1.6 -2.3 -2.6 -2.9 -2.7 -2.3 -2.2 -1.9 -2.0 -2.6 -2.0 -2.1 -1.5 -1.2 -0.7 -0.5 -1.3 -1.4 -1.2 -1.1 -0.8 -1.0 -1.4 -1.7 -1.0 -1.2 -1.0 -1.2 -0.3 0.3 0.9 1.4 2.8
0.7 1.0 1.1 -0.3 -1.6 -2.2 -2.4 -1.8 -1.3 -1.3 -1.1 -1.3 -1.9 -1.8 -1.7 -2.0 -2.4 -2.5 -2.7 -2.8 -2.3 -2.3 -2.1 -1.7 -1.0 -0.7 -0.9 -1.5 -1.3 -1.2 -1.2 -1.1 -1.2 -1.6 -1.6 -1.7 -1.5 -1.3 -0.4 0.1 0.6 1.4 2.5
3.0 1.6 0.5 -0.4 -1.3 -1.6 -1.8 -2.2 -2.7 -2.5 -1.9 -1.9 -2.3 -2.6 -2.1 -2.0 -1.7 -2.1 -2.1 -2.3 -2.3 -2.1 -1.7 -1.7 -1.3 -1.1 -1.0 -0.9 -0.8 -1.0 -1.7 -2.1 -1.9 -1.9 -1.7 -1.4 -1.5 -1.5 -1.1 -0.6 0.0 1.0 2.2
Wind_Speed
11 9 9 8 8 7 6 6 6 8 10 7 9 9 7 7 11 8 6 6 8 6 5 6 6 6 4 4 3 3 4 2 2 0 1 3 4 7 13 15 13 12 15
12 10 10 10 9 8 7 7 10 7 10 10 10 7 7 7 9 6 7 6 7 7 6 6 5 4 5 4 3 5 4 3 2 2 1 1 2 7 9 11 11 11 14
13 12 10 10 10 9 8 8 8 8 7 9 10 7 7 6 6 7 7 6 6 6 6 6 5 5 4 2 3 3 2 3 3 1 1 1 1 6 5 6 9 10 9
13 13 12 11 11 10 9 9 9 9 8 6 7 7 7 9 9 9 7 6 6 5 7 6 5 5 5 4 3 3 3 3 2 2 2 1 1 2 3 4 5 5 3
13 13 12 11 10 10 9 9 8 8 7 9 7 7 9 8 8 7 7 7 7 6 5 7 8 7 6 6 3 3 4 2 2 3 2 2 2 4 5 3 3 5 2
14 13 11 12 11 11 10 10 9 8 7 7 7 7 7 4 14 16 13 7 6 7 6 5 9 8 8 7 7 7 6 3 2 1 1 2 2 3 3 4 4 5 3
14 13 13 13 13 12 11 11 10 10 7 8 7 7 7 7 17 17 16 8 6 6 6 5 4 6 9 8 9 9 9 7 4 2 1 1 1 1 4 5 6 4 3
14 14 14 14 13 12 12 12 11 9 10 9 8 7 7 6 18 19 18 10 5 6 7 7 6 5 8 8 5 4 3 4 2 1 1 1 1 3 1 3 4 7 1
17 16 16 15 14 13 13 12 10 9 6 8 7 8 8 6 18 19 15 6 6 6 8 11 10 7 10 11 5 5 3 1 1 3 3 4 4 6 6 2 3 3 3
17 17 16 16 16 15 14 13 10 9 9 7 7 8 10 8 16 19 15 5 6 4 4 8 12 11 12 13 5 5 4 2 1 2 2 4 5 5 6 2 2 4 3
14 14 15 16 16 15 13 10 10 9 8 8 8 6 7 9 10 19 19 6 6 5 5 4 5 12 13 13 10 5 4 5 2 1 1 2 4 4 5 3 2 1 1
15 15 15 14 11 11 14 11 11 11 10 8 8 5 5 6 13 17 20 15 13 7 6 4 8 15 15 14 11 9 7 5 2 1 0 0 2 2 4 4 3 3 6
16 15 14 14 12 13 13 12 9 10 9 9 8 8 6 4 5 17 20 18 18 6 6 11 16 18 17 14 14 12 8 3 2 1 1 1 1 2 5 3 4 3 2
16 15 13 14 12 11 9 10 10 10 9 9 9 8 6 5 6 4 4 9 11 6 9 10 12 12 12 9 6 9 7 4 3 2 2 2 1 0 1 3 1 1 1
13 12 12 11 13 11 10 11 11 12 12 11 10 8 8 8 8 12 11 7 6 7 8 4 3 3 5 4 3 4 4 4 3 2 2 2 1 1 0 2 1 2 1
13 11 10 9 9 9 9 5 6 7 12 12 13 12 7 8 17 20 20 19 19 20 3 3 6 7 7 7 6 5 4 6 5 4 3 3 2 1 1 0 2 2 3
13 13 10 10 10 10 8 9 8 4 7 12 15 15 16 13 17 20 21 20 22 15 3 6 7 8 7 7 6 6 5 7 8 5 4 4 3 3 2 2 3 3 2
10 11 11 10 10 9 9 9 7 9 8 4 6 10 13 15 17 18 18 15 7 5 5 6 8 7 7 7 7 6 5 5 6 5 5 5 4 3 3 3 3 4 3
7 8 9 8 8 9 8 8 7 7 7 5 3 3 7 12 13 14 25 7 9 9 9 7 6 7 7 7 6 6 6 6 7 6 6 6 5 4 4 4 5 6 6
8 9 7 7 7 8 7 8 6 7 6 6 7 7 5 5 4 6 9 5 7 7 8 9 8 7 7 7 7 6 6 6 7 7 6 6 6 6 5 5 6 6 6
4 7 9 6 7 7 7 8 8 7 7 7 8 7 14 10 10 10 10 10 9 8 8 9 8 8 7 7 7 7 8 7 7 8 7 7 6 7 5 5 5 6 6
5 6 7 6 5 7 7 7 7 8 7 8 5 5 12 8 7 8 9 9 10 9 10 9 8 8 10 10 9 9 9 9 8 8 8 7 7 7 6 6 5 6 5
4 1 4 4 4 4 3 4 5 6 6 7 5 6 8 9 8 9 10 9 8 9 14 14 8 8 15 17 19 18 10 10 13 16 9 8 8 8 7 7 7 6 6
9 5 2 3 4 4 4 4 4 4 4 4 5 5 7 7 8 10 8 6 7 8 13 14 15 15 15 17 18 20 20 18 20 22 21 10 9 9 8 7 7 8 6
10 7 2 4 3 2 2 2 3 4 4 4 4 5 5 6 6 6 5 5 6 6 9 15 16 18 21 22 21 23 23 26 25 23 22 19 12 13 10 8 8 7 8
5 6 7 6 6 5 4 2 0 1 2 3 4 4 5 6 6 6 6 7 7 7 8 12 16 20 20 22 25 26 27 31 30 30 24 19 10 10 9 10 12 7 8
Wind_Direction
160 159 149 150 148 146 148 156 152 133 144 143 139 134 128 120 118 106 99 102 101 99 86 92 81 79 75 68 61 62 61 66 97 353 319 328 334 1 12 24 19 11 20
161 159 157 147 147 149 153 166 151 144 158 153 144 132 128 128 126 122 123 126 124 114 109 99 101 97 80 78 75 67 62 56 113 77 310 315 347 1 18 19 8 12 21
159 155 149 153 155 161 162 169 152 147 153 155 145 142 139 137 133 134 132 133 123 121 126 122 124 112 101 98 82 89 77 75 70 111 21 308 301 19 14 2 338 347 12
158 160 156 162 164 166 162 166 157 157 152 160 158 144 144 148 144 144 137 129 122 122 131 125 120 116 131 126 112 123 121 100 75 70 38 7 342 6 16 347 339 356 9
161 162 163 163 161 156 158 165 154 158 163 159 150 145 149 151 157 147 140 140 137 132 131 124 120 119 127 152 150 158 131 114 91 61 45 23 14 14 7 325 348 348 351
163 165 157 158 160 163 163 163 159 159 159 152 158 153 155 160 165 155 146 146 150 145 147 132 122 105 102 106 118 134 141 129 91 79 38 25 356 335 349 330 0 6 352
161 160 161 163 167 169 166 163 166 167 157 165 162 158 166 163 167 162 158 152 153 154 150 146 141 133 123 113 107 107 100 98 105 124 65 352 312 313 327 353 9 1 325
164 165 165 166 169 167 168 172 169 166 171 169 171 167 162 177 170 166 164 156 149 156 163 164 156 154 164 149 136 119 115 103 77 118 143 253 277 356 353 331 357 348 331
174 173 170 170 167 168 174 172 170 162 169 172 172 169 170 178 174 167 153 151 154 164 170 173 165 163 177 171 150 146 146 133 15 69 42 16 48 35 24 11 7 6 6
179 176 170 169 169 174 171 170 169 172 175 170 173 179 178 173 177 168 159 152 155 159 161 178 178 172 176 175 162 160 150 178 83 16 359 8 12 26 21 26 325 5 5
170 169 168 171 172 171 165 167 162 164 164 172 176 179 177 176 181 176 168 160 168 167 174 180 181 179 176 177 170 160 173 167 223 213 299 14 344 14 12 350 241 336 29
166 167 168 168 166 160 161 160 165 165 168 173 170 176 192 184 176 186 181 177 170 168 190 179 174 180 178 177 169 174 168 174 171 194 294 338 333 338 343 335 301 272 224
162 166 165 163 164 161 161 162 164 171 176 179 185 192 193 182 181 187 187 182 176 172 175 181 175 180 182 184 185 184 172 166 164 181 236 267 282 290 319 332 303 317 262
164 163 161 161 158 163 167 170 171 178 183 185 189 194 187 178 186 175 181 170 171 160 161 158 169 173 182 184 189 203 192 191 187 198 214 243 288 25 341 344 323 329 321
162 160 163 165 165 166 174 175 183 194 187 185 194 185 178 199 200 180 176 179 177 170 132 123 140 162 187 199 200 199 194 189 198 201 209 210 241 188 329 358 324 311 288
159 161 163 160 166 169 166 148 39 185 186 185 166 175 197 175 163 179 186 183 169 152 131 161 183 191 196 199 200 196 194 199 207 201 204 205 226 203 222 255 278 280 293
166 163 162 162 165 165 167 173 179 11 170 185 181 181 176 176 177 182 186 178 168 157 170 187 191 197 203 200 198 194 199 205 194 196 200 203 214 214 187 216 251 265 284
175 163 167 169 171 167 172 179 174 177 183 195 199 187 189 176 180 184 175 144 159 222 193 190 202 198 199 201 198 197 194 184 192 196 196 198 204 206 191 221 244 265 275
169 172 166 161 173 170 164 167 170 173 184 171 133 170 184 180 185 165 162 173 184 198 208 209 202 196 201 198 197 192 189 192 193 189 199 198 200 202 204 206 227 242 240
161 159 149 156 158 163 160 167 168 176 171 175 192 196 139 118 162 172 191 191 193 200 201 206 205 201 197 194 191 187 190 189 194 197 198 196 199 206 206 208 214 233 239
174 155 148 147 168 173 170 179 179 179 192 189 204 183 181 185 192 189 192 202 205 204 198 201 200 199 198 194 187 187 194 197 197 196 193 195 195 208 207 206 220 229 242
164 170 155 164 162 174 183 178 178 182 189 197 196 176 181 197 186 193 200 204 207 208 203 199 200 200 197 193 192 191 195 198 192 190 192 191 194 202 203 210 224 230 233
52 118 139 138 153 144 158 168 174 182 191 200 181 165 182 203 203 201 205 207 202 204 201 199 201 202 201 199 198 196 194 199 197 188 187 187 191 199 203 210 211 225 226
38 17 58 125 152 162 167 173 177 181 183 183 182 181 194 206 209 212 210 196 196 200 198 201 207 209 203 201 202 204 207 199 188 189 184 183 191 192 199 205 209 217 223
13 359 358 78 76 82 132 150 179 180 191 197 192 192 195 202 207 215 210 200 204 197 201 205 210 213 206 200 202 204 203 198 190 188 187 185 187 190 197 204 204 213 215
10 13 352 22 52 50 52 68 43 233 217 214 208 197 199 202 211 214 208 201 204 209 210 209 214 214 215 216 214 207 199 196 192 188 183 185 183 189 193 199 203 207 216